Showing default

ISAT, 43879

Orbit data source: Space-Track

ISAT, 43879 is a payload satellite owned by iSky (DE) in SSO that was launched on Thu, 27 Dec 2018 UTC via a SOYUZ-2-1A launch vehicle from the Vostochny Cosmodrome (VOSTO). Payload-class satellites include a variety of spacecraft equipped with specific instruments for various scientific and technological missions. These include communications satellites like Starlink; space stations such as the ISS; scientific satellites like the Hubble; Earth observation satellites from companies like Planet Labs, Umbra, and HawkEye 360; GPS; miniature CubeSats for education and research; and military/defense satellites.

Not visible in the next 10 days
Identifier
43879, 2018-111D
Orbit
SSO
Country
Flag of DEDE / GER
Related business
Manufacturer
German Orb Sys
Mission
Operational Commercial Communications
Bus & Motor
CUBESAT 3U, Unknown motor
Mass
3 kg wet, 3 kg dry
Launch date (UTC)
2018-12-27 (7 years ago)
Launch vehicle
SOYUZ-2-1A
Launch site
Vostochny Cosmodrome (VOSTO)
Object type
Payload
Rocket body
Debris
Shape & HBR
Box + 1 Ant, 0.5 m
Radar Cross Section
0.061 m², Small (<0.1 m²)

Expand to show TLE details & history
Last TLE update: 9 hours ago

TLE from 9 hours ago
0 ISAT
1 43879U 18111D   26094.24337373  .00104627  00000-0  15604-2 0  9994
2 43879  97.5908  24.4514 0005626 167.9647 192.1742 15.54697971399641
Epoch: 2026-04-04T05:50Z
TLE epoch observation values (Epoch: 2026-04-04T05:50:27.490Z)
Latitude
0.00001°
Longitude
104.27091°
Altitude
409.893 km
Speed
7.663 km/s
True Right ascension
01h 37m 48s
True Declination
0° 00' 00"
Sunlit
Object was in daylight at epoch
Visualization orbit readout
Latitude
Unknown
Longitude
Unknown
Altitude
Unknown
Speed
Unknown
Apparent Right ascension
Unknown
Apparent Declination
Unknown
Sunlit
N/A
Visualization observer readout
Local Sidereal Time
20:21:42
Azimuth
Unknown
Elevation
Unknown
Doppler factor
Unknown
Orbital elements
Apogee altitude
403.772 km
Perigee altitude
396.145 km
Semi-major axis
6,778.096 km
Eccentricity
0.00056
Inclination
97.5908°
RAAN
24.4514°
Arg. of periapsis
167.9647°
True anomaly
192.16061°
Mean anomaly
192.1742°
Eccentric anomaly
192.16741°
Mean motion
3.88939 °/min
Orbital period
92.56 mins
BSTAR
0.0015604
Loading maneuver chart data...
Computing Atmospheric mass density...

Documentation

Showing up to 5 results
|